EN

Hourly Weather Bugulma

Today, 16 April, Friday

Time Temperature Precipitation Wind Pressure Humidity
00:00 +12°C° 0 mm 2 mps 736 mmHg 54%
01:00 +12°C° 0 mm 1 mps 736 mmHg 54%
02:00 +11°C° 0 mm 1 mps 736 mmHg 55%
03:00 +11°C° 0 mm 1 mps 736 mmHg 55%
04:00 +10°C° 0 mm 1 mps 736 mmHg 56%
05:00 +11°C° 0 mm 1 mps 736 mmHg 57%
06:00 +11°C° 0 mm 1 mps 736 mmHg 57%
07:00 +11°C° 0 mm 1 mps 737 mmHg 58%
08:00 +12°C° 0 mm 2 mps 737 mmHg 57%
09:00 +13°C° 0 mm 2 mps 737 mmHg 56%
10:00 +13°C° 0 mm 3 mps 737 mmHg 54%
11:00 +14°C° 0 mm 3 mps 737 mmHg 53%
12:00 +16°C° 0 mm 3 mps 737 mmHg 52%
13:00 +17°C° 0 mm 4 mps 738 mmHg 51%
14:00 +17°C° 0 mm 4 mps 738 mmHg 51%
15:00 +17°C° 0 mm 4 mps 738 mmHg 51%
16:00 +18°C° 0 mm 4 mps 738 mmHg 50%
17:00 +15°C° 0 mm 5 mps 738 mmHg 56%
18:00 +14°C° 0 mm 5 mps 738 mmHg 62%
19:00 +13°C° 0 mm 5 mps 738 mmHg 68%
20:00 +12°C° 0 mm 5 mps 738 mmHg 73%
21:00 +9°C° 0 mm 5 mps 738 mmHg 79%
22:00 +8°C° 0 mm 5 mps 739 mmHg 84%
23:00 +8°C° 0 mm 5 mps 739 mmHg 84%

Tomorrow, 17 April, Saturday

Time Temperature Precipitation Wind Pressure Humidity
00:00 +7°C° 0 mm 5 mps 739 mmHg 85%
01:00 +7°C° 0 mm 4 mps 739 mmHg 85%
02:00 +6°C° 0 mm 4 mps 739 mmHg 85%
03:00 +6°C° 0 mm 4 mps 739 mmHg 85%
04:00 +5°C° 0 mm 4 mps 739 mmHg 85%
05:00 +5°C° 0 mm 4 mps 739 mmHg 83%
06:00 +5°C° 0 mm 4 mps 739 mmHg 80%
07:00 +5°C° 0 mm 4 mps 739 mmHg 78%
08:00 +5°C° 0 mm 5 mps 739 mmHg 70%
09:00 +6°C° 0 mm 5 mps 740 mmHg 62%
10:00 +7°C° 0 mm 5 mps 740 mmHg 54%
11:00 +8°C° 0 mm 5 mps 740 mmHg 49%
12:00 +10°C° 0 mm 5 mps 740 mmHg 44%
13:00 +12°C° 0 mm 5 mps 739 mmHg 39%
14:00 +12°C° 0 mm 5 mps 739 mmHg 38%
15:00 +12°C° 0 mm 5 mps 739 mmHg 37%
16:00 +13°C° 0 mm 5 mps 739 mmHg 36%
17:00 +12°C° 0 mm 4 mps 739 mmHg 40%
18:00 +11°C° 0 mm 4 mps 739 mmHg 43%
19:00 +10°C° 0 mm 4 mps 739 mmHg 46%
20:00 +9°C° 0 mm 3 mps 739 mmHg 49%
21:00 +8°C° 0 mm 3 mps 739 mmHg 52%
22:00 +5°C° 0 mm 3 mps 739 mmHg 55%
23:00 +5°C° 0 mm 3 mps 739 mmHg 58%

Day after tomorrow, 18 April, Sunday

Time Temperature Precipitation Wind Pressure Humidity
00:00 +4°C° 0 mm 3 mps 739 mmHg 60%
01:00 +4°C° 0 mm 3 mps 739 mmHg 62%
02:00 +3°C° 0 mm 3 mps 739 mmHg 64%
03:00 +3°C° 0 mm 2 mps 739 mmHg 66%
04:00 +3°C° 0 mm 2 mps 739 mmHg 67%
05:00 +3°C° 0 mm 2 mps 739 mmHg 67%
06:00 +3°C° 0 mm 2 mps 739 mmHg 67%
07:00 +4°C° 0 mm 2 mps 739 mmHg 67%
08:00 +4°C° 0 mm 3 mps 739 mmHg 61%
09:00 +6°C° 0 mm 4 mps 739 mmHg 55%
10:00 +7°C° 0 mm 4 mps 739 mmHg 49%
11:00 +8°C° 0 mm 5 mps 739 mmHg 46%
12:00 +9°C° 0 mm 5 mps 739 mmHg 42%
13:00 +10°C° 0 mm 5 mps 739 mmHg 39%
14:00 +10°C° 0 mm 5 mps 739 mmHg 39%
15:00 +10°C° 0 mm 5 mps 739 mmHg 40%
16:00 +12°C° 0 mm 5 mps 739 mmHg 40%
17:00 +10°C° 0 mm 5 mps 739 mmHg 45%
18:00 +9°C° 0 mm 5 mps 739 mmHg 50%
19:00 +8°C° 0 mm 6 mps 739 mmHg 55%
20:00 +7°C° 0 mm 6 mps 740 mmHg 59%
21:00 +4°C° 0 mm 6 mps 740 mmHg 62%
22:00 +3°C° 0 mm 6 mps 740 mmHg 65%
23:00 +2°C° 0 mm 5 mps 740 mmHg 65%

19 April, Monday

Time Temperature Precipitation Wind Pressure Humidity
00:00 +2°C° 0 mm 5 mps 740 mmHg 65%
01:00 +1°C° 0 mm 5 mps 740 mmHg 65%
02:00 +1°C° 0 mm 5 mps 741 mmHg 67%
03:00 -1°C° 0 mm 6 mps 741 mmHg 70%
04:00 -2°C° 0 mm 6 mps 741 mmHg 72%
05:00 -2°C° 0 mm 6 mps 741 mmHg 71%
06:00 -2°C° 0 mm 6 mps 741 mmHg 70%
07:00 -2°C° 0 mm 6 mps 742 mmHg 69%
08:00 -1°C° 0 mm 7 mps 742 mmHg 66%
09:00 0°C° 0 mm 7 mps 742 mmHg 62%
10:00 0°C° 0 mm 7 mps 743 mmHg 58%
11:00 +2°C° 0 mm 7 mps 743 mmHg 59%
12:00 +2°C° 0 mm 7 mps 743 mmHg 60%
13:00 +2°C° 0 mm 7 mps 743 mmHg 61%
14:00 +3°C° 0 mm 7 mps 743 mmHg 58%
15:00 +3°C° 0 mm 7 mps 743 mmHg 56%
16:00 +4°C° 0 mm 6 mps 743 mmHg 53%
17:00 +4°C° 0 mm 6 mps 743 mmHg 53%
18:00 +4°C° 0 mm 6 mps 743 mmHg 52%
19:00 +3°C° 0 mm 6 mps 743 mmHg 52%
20:00 +2°C° 0 mm 5 mps 744 mmHg 54%
21:00 +2°C° 0 mm 5 mps 744 mmHg 56%
22:00 +1°C° 0 mm 4 mps 744 mmHg 59%
23:00 0°C° 0 mm 5 mps 744 mmHg 60%

20 April, Tuesday

Time Temperature Precipitation Wind Pressure Humidity
00:00 0°C° 0 mm 5 mps 744 mmHg 60%
01:00 -1°C° 0 mm 5 mps 745 mmHg 61%
02:00 -2°C° 0 mm 5 mps 745 mmHg 60%
03:00 -2°C° 0 mm 5 mps 745 mmHg 59%
04:00 -4°C° 0 mm 5 mps 745 mmHg 58%
05:00 -4°C° 0 mm 5 mps 746 mmHg 56%
06:00 -2°C° 0 mm 5 mps 746 mmHg 54%
07:00 -3°C° 0 mm 6 mps 746 mmHg 53%
08:00 -2°C° 0 mm 6 mps 746 mmHg 46%
09:00 -1°C° 0 mm 6 mps 746 mmHg 39%
10:00 +2°C° 0 mm 7 mps 746 mmHg 33%
11:00 +3°C° 0 mm 7 mps 746 mmHg 31%
12:00 +4°C° 0 mm 7 mps 746 mmHg 29%
13:00 +5°C° 0 mm 7 mps 746 mmHg 27%
14:00 +6°C° 0 mm 7 mps 746 mmHg 26%
15:00 +6°C° 0 mm 7 mps 745 mmHg 26%
16:00 +7°C° 0 mm 6 mps 745 mmHg 26%
17:00 +7°C° 0 mm 6 mps 745 mmHg 29%
18:00 +6°C° 0 mm 5 mps 745 mmHg 32%
19:00 +6°C° 0 mm 4 mps 745 mmHg 35%
20:00 +5°C° 0 mm 4 mps 745 mmHg 39%
21:00 +4°C° 0 mm 4 mps 745 mmHg 42%
22:00 +3°C° 0 mm 4 mps 745 mmHg 45%
23:00 +1°C° 0 mm 4 mps 745 mmHg 47%

21 April, Wednesday

Time Temperature Precipitation Wind Pressure Humidity
00:00 +1°C° 0 mm 4 mps 745 mmHg 48%
01:00 0°C° 0 mm 4 mps 745 mmHg 49%
02:00 0°C° 0 mm 5 mps 745 mmHg 50%
03:00 -1°C° 0 mm 5 mps 745 mmHg 51%
04:00 -1°C° 0 mm 5 mps 745 mmHg 52%
05:00 -1°C° 0 mm 5 mps 745 mmHg 50%
06:00 -2°C° 0 mm 6 mps 745 mmHg 49%
07:00 -2°C° 0 mm 6 mps 745 mmHg 48%
08:00 0°C° 0 mm 7 mps 745 mmHg 43%
09:00 +2°C° 0 mm 7 mps 745 mmHg 38%
10:00 +4°C° 0 mm 8 mps 746 mmHg 33%
11:00 +5°C° 0 mm 8 mps 745 mmHg 31%
12:00 +7°C° 0 mm 8 mps 745 mmHg 28%
13:00 +9°C° 0 mm 8 mps 745 mmHg 26%
14:00 +9°C° 0 mm 8 mps 745 mmHg 26%
15:00 +10°C° 0 mm 8 mps 745 mmHg 26%
16:00 +10°C° 0 mm 8 mps 744 mmHg 25%
17:00 +10°C° 0 mm 7 mps 744 mmHg 29%
18:00 +9°C° 0 mm 6 mps 744 mmHg 32%
19:00 +8°C° 0 mm 5 mps 744 mmHg 36%
20:00 +8°C° 0 mm 5 mps 744 mmHg 38%
21:00 +7°C° 0 mm 4 mps 744 mmHg 40%
22:00 +6°C° 0 mm 4 mps 744 mmHg 43%
23:00 +6°C° 0 mm 4 mps 744 mmHg 45%
Show more

We Need Your Consent

Meteoprog and our Service Providers may store and access personal data such as cookies, device identifiers or other similar technologies on your device and process such data to personalise content and ads, as well as provide social media features and to analyse the traffic.

  • Store and/or access information on your device

    Cookies, device identifiers or other information can be stored or accessed on your device for the purposes indicated above.

  • Personalised ads and content, ad and content measurement, audience insights, and products development

    Ads and content can be personalised based on a profile. More data can be added to better personalise ads and content. Ad and content performance can be measured. Insights about the audience who saw the ads and content can be derived. Such data can be used to develop or improve user’s experience, systems and software.

By clicking ‘I Agree’ you will allow the use of indicated cookies, device identifiers, web beacons or other similar technologies. Your settings can be changed in the browser on your device.

For certain purposes, legitimate interests may be relied on, rather than consent. You can read more about this in our Privacy and Cookie Policy.